Greenville, SC

1:19 PM EDT on August 31, 2016 (GMT -0400)
Greenville Downtown

Weather History for KGMU - October, 2012

Change the Weather History Date:

Thursday, October 11, 2012

  Actual Average Record
Temperature  
Mean Temperature 60 °F -  
Max Temperature 69 °F 70 °F 86 °F (2010)
Min Temperature 50 °F 51 °F 39 °F (2000)
Degree Days  
Heating Degree Days 6    
Growing Degree Days 10 (Base 50)    
Moisture  
Dew Point 44 °F    
Average Humidity 63    
Maximum Humidity 77    
Minimum Humidity 42    
Precipitation  
Precipitation 0.00 in - - ()
Sea Level Pressure  
Sea Level Pressure 30.24 in    
Wind  
Wind Speed 5 mph (NNE)    
Max Wind Speed 10 mph    
Max Gust Speed -    
Visibility 10 miles    
Events      
Averages and records for this station are not official NWS values.
T = Trace of Precipitation, MM = Missing Value Source: NWS Daily Summary

Daily Weather History Graph

Daily Weather History Graph

Search for Another Location

Airport or City:

Trip Planner

Search our weather history database for the weather conditions in past years. The results will help you decide how hot, cold, wet, or windy it might be!

Date:

Astronomy

Oct. 11, 2012 Rise Set
Actual Time 7:32 AM EDT 6:59 PM EDT
Civil Twilight 7:06 AM EDT 7:24 PM EDT
Nautical Twilight 6:37 AM EDT 7:53 PM EDT
Astronomical Twilight 6:08 AM EDT 8:22 PM EDT
Moon 3:18 AM EDT (10/11) 4:27 PM EDT (10/11)
Length of Visible Light 12h 17m
Length of Day
11h 26m
Waning Crescent, 18% of the Moon is Illuminated
Oct 11
Waning Crescent
Oct 15
New
Oct 21
First Quarter
Oct 29
Full
Nov 6
Last Quarter

Hourly Weather History & Observations

Time (EDT) Temp. Dew Point Humidity Pressure Visibility Wind Dir Wind Speed Gust Speed Precip Events Conditions
12:53 AM 54.0 °F 46.9 °F 77% 30.17 in 10.0 mi North 5.8 mph - N/A   Clear
1:53 AM 54.0 °F 46.9 °F 77% 30.17 in 10.0 mi Calm Calm - N/A   Clear
2:53 AM 53.1 °F 45.0 °F 74% 30.16 in 10.0 mi North 10.4 mph - N/A   Clear
3:53 AM 51.1 °F 43.0 °F 74% 30.17 in 10.0 mi North 9.2 mph - N/A   Clear
4:53 AM 51.1 °F 42.1 °F 71% 30.17 in 10.0 mi NNE 9.2 mph - N/A   Clear
5:53 AM 50.0 °F 42.1 °F 74% 30.21 in 10.0 mi East 4.6 mph - N/A   Clear
6:53 AM 50.0 °F 41.0 °F 71% 30.22 in 10.0 mi ENE 5.8 mph - N/A   Clear
7:53 AM 50.0 °F 41.0 °F 71% 30.25 in 10.0 mi NE 9.2 mph - N/A   Clear
8:53 AM 54.0 °F 42.1 °F 64% 30.27 in 10.0 mi NE 8.1 mph - N/A   Clear
9:53 AM 57.0 °F 42.1 °F 57% 30.30 in 10.0 mi ENE 6.9 mph - N/A   Clear
10:53 AM 59.0 °F 42.1 °F 53% 30.31 in 10.0 mi Variable 5.8 mph - 0.00 in   Clear
11:53 AM 62.1 °F 43.0 °F 50% 30.32 in 10.0 mi Calm Calm - N/A   Clear
12:53 PM 64.0 °F 42.1 °F 45% 30.30 in 10.0 mi Calm Calm - N/A   Clear
1:53 PM 64.9 °F 44.1 °F 47% 30.27 in 10.0 mi West 4.6 mph - N/A   Clear
2:53 PM 68.0 °F 44.1 °F 42% 30.24 in 10.0 mi SSW 10.4 mph - N/A   Clear
4:53 PM 69.1 °F 45.0 °F 42% 30.23 in 10.0 mi WSW 6.9 mph - N/A   Clear
7:53 PM 63.0 °F 46.0 °F 54% 30.24 in 10.0 mi Calm Calm - N/A   Clear
9:53 PM 57.9 °F 48.0 °F 70% 30.25 in 10.0 mi Calm Calm - N/A   Clear
10:53 PM 57.9 °F 48.0 °F 70% 30.25 in 10.0 mi Calm Calm - N/A   Clear
11:53 PM 57.9 °F 46.9 °F 67% 30.24 in 10.0 mi Calm Calm - N/A   Clear